FW8987 Weather Reports


time (UTC)temp
F
wind
direction
speed
knots
gust
knots
rain 1hr
in
rain 24hr
in
rain mn
in
humidity
%
barometer
mb
20260503204524 41 0.0 0.0 0.00 0.05 0.04 88 1008.7
20260503203518 41 176 0.9 0.9 0.00 0.05 0.04 87 1008.6
20260503202533 41 182 0.0 0.9 0.00 0.06 0.04 88 1008.7
20260503201529 42 183 0.0 0.9 0.00 0.06 0.04 86 1008.6
20260503200545 43 178 0.9 0.9 0.00 0.06 0.04 85 1008.7
20260503195519 43 178 0.0 0.9 0.00 0.06 0.04 83 1008.9
20260503194554 44 180 0.9 1.7 0.00 0.06 0.04 82 1009.0
20260503193550 44 185 0.0 0.9 0.00 0.06 0.04 82 1009.0
20260503192524 44 180 0.0 0.9 0.00 0.06 0.04 81 1009.0
20260503191519 45 187 0.9 3.5 0.00 0.06 0.04 81 1009.1
20260503190535 45 191 0.9 1.7 0.00 0.06 0.04 80 1009.2
20260503185530 45 195 0.0 0.9 0.00 0.06 0.04 79 1009.2
20260503184526 45 200 1.7 5.2 0.00 0.06 0.04 78 1009.1
20260503183522 46 199 1.7 3.5 0.00 0.06 0.04 78 1008.9
20260503182517 46 196 1.7 2.6 0.00 0.06 0.04 77 1009.1
20260503181532 46 186 1.7 3.5 0.00 0.06 0.04 76 1009.1
20260503180528 46 193 1.7 3.5 0.00 0.06 0.04 75 1009.0
20260503175523 47 199 1.7 2.6 0.00 0.06 0.04 74 1009.0
20260503174518 47 183 2.6 7.0 0.00 0.06 0.04 72 1009.1
20260503173553 48 196 2.6 6.1 0.00 0.06 0.04 70 1009.0
20260503172528 48 189 1.7 2.6 0.00 0.06 0.04 69 1008.9
20260503171545 49 202 2.6 5.2 0.00 0.06 0.04 67 1008.8
20260503170604 49 196 2.6 3.5 0.00 0.06 0.04 66 1008.8
20260503150523 51 190 1.7 2.6 0.00 0.06 0.04 59 1009.9
20260503130527 48 113 1.7 6.1 0.00 0.06 0.04 57 1010.9
20260503110530 44 234 1.7 3.5 0.00 0.06 0.04 61 1012.0
20260503081529 42 201 0.9 2.6 0.00 0.06 0.04 67 1012.6
20260503080544 41 31 1.7 3.5 0.00 0.06 0.04 69 1012.7
20260503072525 41 237 0.9 2.6 0.00 0.06 0.04 71 1012.5
20260503071519 41 230 0.9 6.1 0.00 0.06 0.04 71 1012.6
20260503070535 41 250 1.7 5.2 0.00 0.06 0.04 72 1012.3
20260503054518 41 232 1.7 3.5 0.00 0.06 0.04 75 1012.0
20260503053614 41 152 0.9 3.5 0.00 0.06 0.04 76 1011.9
20260503052529 40 207 0.9 3.5 0.00 0.06 0.04 77 1012.0
20260503051525 40 180 0.9 3.5 0.00 0.06 0.04 77 1012.0
20260503050520 40 228 0.9 1.7 0.00 0.06 0.04 78 1012.0
20260503045536 40 224 0.9 5.2 0.00 0.06 0.04 78 1011.9
20260503044531 41 222 1.7 5.2 0.00 0.06 0.04 77 1012.0
20260503043527 41 242 0.9 3.5 0.00 0.06 0.04 77 1011.9
20260503042522 41 221 0.9 2.6 0.00 0.06 0.04 77 1011.7
20260503041517 41 160 0.9 3.5 0.00 0.06 0.04 77 1011.6
20260503040533 41 216 0.9 3.5 0.00 0.06 0.04 78 1011.6
20260503035548 41 207 0.9 2.6 0.00 0.06 0.04 79 1011.4
20260503034523 41 237 0.9 3.5 0.00 0.06 0.04 80 1011.3
20260503033518 41 233 0.9 1.7 0.00 0.06 0.04 81 1011.2
20260503032554 41 209 0.9 2.6 0.00 0.06 0.04 82 1011.2
20260503031529 41 221 0.9 3.5 0.00 0.06 0.04 82 1011.3
20260503030525 41 236 0.9 2.6 0.00 0.06 0.04 84 1011.1
20260503025520 41 211 0.0 0.9 0.00 0.06 0.04 84 1011.1
20260503024515 41 163 0.9 1.7 0.00 0.06 0.04 84 1011.1
20260503023551 41 194 0.0 0.9 0.00 0.06 0.04 86 1011.1
20260503022546 41 178 0.0 0.9 0.00 0.06 0.04 86 1011.3
20260503021521 41 112 0.9 2.6 0.00 0.06 0.04 86 1011.2
20260503020517 41 197 0.9 1.7 0.00 0.06 0.04 86 1011.1
20260503015532 41 176 0.9 2.6 0.00 0.06 0.04 86 1011.0
20260503014528 41 207 0.0 1.7 0.00 0.06 0.04 87 1010.9
20260503013522 41 192 0.0 0.9 0.00 0.06 0.04 87 1010.8
20260503012558 41 213 1.7 3.5 0.00 0.06 0.04 87 1010.9
20260503011533 42 229 0.9 5.2 0.01 0.06 0.04 87 1010.9
20260503010529 42 246 1.7 6.1 0.01 0.06 0.04 91 1010.8
20260503005544 43 191 0.9 3.5 0.01 0.06 0.04 92 1010.6
20260503004520 43 54 1.7 7.0 0.02 0.06 0.04 92 1010.6
20260503003535 43 55 1.7 6.1 0.03 0.06 0.04 95 1010.3
20260503002530 43 95 1.7 6.1 0.04 0.06 0.04 95 1010.2
20260503001526 44 42 2.6 7.0 0.03 0.05 0.03 95 1010.1
20260503000521 44 70 1.7 7.0 0.03 0.05 0.03 95 1010.1
20260502235517 44 82 2.6 5.2 0.03 0.05 0.03 95 1010.0
20260502234532 45 75 2.6 6.1 0.02 0.04 0.02 94 1009.9
20260502233527 45 75 3.5 7.0 0.01 0.03 0.01 93 1009.7
20260502232543 46 59 2.6 6.1 0.00 0.02 0.00 91 1009.7
20260502231518 46 48 4.3 8.7 0.00 0.02 0.00 89 1009.4
20260502230533 48 49 4.3 9.6 0.00 0.02 0.00 86 1009.4
20260502225529 50 257 1.7 5.2 0.00 0.02 0.00 86 1008.8
20260502224525 50 267 1.7 3.5 0.00 0.02 0.00 87 1008.7
20260502223559 50 228 0.0 0.9 0.00 0.02 0.00 89 1008.6
20260502222555 50 204 0.0 0.9 0.00 0.02 0.00 90 1008.4
20260502221530 49 209 0.9 1.7 0.00 0.02 0.00 91 1008.3
20260502220525 50 197 0.0 0.9 0.00 0.02 0.00 91 1008.3
20260502215540 50 206 0.0 0.9 0.01 0.02 0.02 90 1008.2
20260502214516 50 202 0.0 0.9 0.01 0.02 0.02 89 1008.3
20260502213531 50 197 0.0 0.9 0.01 0.02 0.02 90 1008.1
20260502212527 50 200 0.0 0.9 0.02 0.02 0.02 89 1008.2
20260502211523 50 0.0 0.0 0.02 0.02 0.02 86 1008.2
20260502210518 51 208 0.0 1.7 0.02 0.02 0.02 85 1008.1
20260502205533 52 230 0.9 3.5 0.01 0.01 0.01 78 1008.1